Home   Weather   Turaif   Past weeks
Flag for Saudi Arabia

Past Weather in Turaif, Saudi Arabia — Yesterday and Last 2 Weeks

Now
81 °F

Clear.


Feels Like: 80 °F
Forecast: 105 / 75 °F
Wind: 9 mph from Northeast

Location: Turaif

Current Time: Aug 23, 2019 at 1:48:58 am

Latest Report: Aug 23, 2019 at 1:00 am


Visibility: 10 mi

Pressure: 29.86 "Hg (27.18 "Hg at 827m altitude)

Humidity: 30%

Dew Point: 46 °F

Location of TuraifLocation

Past Weather in Turaif — Graph

°F

Turaif Temperature Yesterday

Maximum temperature yesterday: 102 °F (at 3:00 pm)
Minimum temperature yesterday: 72 °F (at 6:00 am)
Average temperature yesterday: 88 °F

High & Low Weather Summary for the Past Weeks

 TemperatureHumidityPressure
High102 °F (Aug 22, 3:00 pm)83% (Aug 9, 5:00 am)29.98 "Hg (Aug 9, 5:00 am)
Low66 °F (Aug 16, 6:00 am)14% (Aug 9, 3:00 pm)29.68 "Hg (Aug 9, 6:00 pm)
Average84 °F36%29.83 "Hg
* Reported Aug 8 12:00 am — Aug 23 12:00 am, Turaif. Weather by CustomWeather, © 2019

Note: Actual official high and low records may vary slightly from our data, if they occured in-between our weather recording intervals... More about our weather records

Advertising

Turaif Weather History for the Previous 24 Hours

Scroll right to see more
 ConditionsComfort  
Time TempWeatherWind HumidityBarometerVisibility
12:00 am
Fri, Aug 23
82 °FClear.9 mph28%29.86 "Hg10 mi
11:00 pm
Thu, Aug 22
84 °FClear.9 mph25%29.86 "Hg10 mi
10:00 pm90 °FClear.9 mph24%29.86 "Hg10 mi
9:00 pm93 °FClear.9 mph23%29.83 "Hg10 mi
8:00 pm93 °FSunny.9 mph23%29.83 "Hg10 mi
7:00 pm99 °FSunny.12 mph19%29.83 "Hg10 mi
6:00 pm100 °FSunny.12 mph18%29.83 "Hg10 mi
5:00 pm102 °FSunny.5 mph16%29.83 "Hg10 mi
4:00 pm102 °FSunny.5 mph16%29.86 "Hg10 mi
3:00 pm102 °FSunny.5 mph17%29.86 "Hg10 mi
2:00 pm100 °FSunny.7 mph18%29.89 "Hg10 mi
1:00 pm97 °FSunny.5 mph20%29.89 "Hg10 mi
12:00 pm95 °FSunny.5 mph22%29.89 "Hg10 mi
11:00 am93 °FSunny.5 mph23%29.92 "Hg10 mi
10:00 am90 °FSunny.8 mph26%29.92 "Hg10 mi
9:00 am84 °FSunny.9 mph31%29.92 "Hg10 mi
8:00 am79 °FSunny.9 mph34%29.92 "Hg10 mi
7:00 am75 °FSunny.6 mph34%29.92 "Hg10 mi
6:00 am72 °FClear.9 mph36%29.92 "Hg10 mi
5:00 am73 °FClear.8 mph36%29.92 "Hg10 mi
4:00 am75 °FClear.7 mph34%29.89 "Hg10 mi
3:00 am77 °FClear.9 mph32%29.89 "Hg10 mi
2:00 am77 °FClear.12 mph34%29.89 "Hg10 mi
1:00 am79 °FClear.9 mph34%29.92 "Hg10 mi
Weather by CustomWeather, © 2019

See weather overview